Cairns, Australia

7:11 PM AEST on January 18, 2017 (GMT +1000)
Cairns International

Weather History for YBCS - June, 2014

Change the Weather History Date:

Monday, June 9, 2014

  Actual Average Record
Temperature  
Mean Temperature 66 °F -  
Max Temperature 69 °F 78 °F 84 °F (2002)
Min Temperature 62 °F 63 °F 53 °F (2007)
Cooling Degree Days 2    
Growing Degree Days 16 (Base 50)    
Moisture  
Dew Point 64 °F    
Average Humidity 90    
Maximum Humidity 100    
Minimum Humidity 77    
Precipitation  
Precipitation 0.28 in 0.06 in - ()
Sea Level Pressure  
Sea Level Pressure 29.89 in    
Wind  
Wind Speed 7 mph ()    
Max Wind Speed 20 mph    
Max Gust Speed -    
Visibility 5.9 miles    
Events Rain    
Averages and records for this station are not official NWS values.
T = Trace of Precipitation, MM = Missing Value Source: Averaged Metar Reports

Daily Weather History Graph

Daily Weather History Graph

Search for Another Location

Airport or City:

Trip Planner

Search our weather history database for the weather conditions in past years. The results will help you decide how hot, cold, wet, or windy it might be!

Date:

Astronomy

Jun. 09, 2014 Rise Set
Actual Time 6:41 AM AEST 5:50 PM AEST
Civil Twilight 6:18 AM AEST 6:13 PM AEST
Nautical Twilight 5:51 AM AEST 6:40 PM AEST
Astronomical Twilight 5:24 AM AEST 7:07 PM AEST
Moon 2:34 PM AEST (6/9) 2:32 AM AEST (6/9)
Length of Visible Light 11h 55m
Length of Day
11h 08m
Waxing Gibbous, 80% of the Moon is Illuminated
Jun 9
Waxing Gibbous
Jun 13
Full
Jun 20
Last Quarter
Jun 27
New
Jul 5
First Quarter

Hourly Weather History & Observations

Time (AEST) Temp. Dew Point Humidity Pressure Visibility Wind Dir Wind Speed Gust Speed Precip Events Conditions
12:00 AM 67 °F 64 °F 87% 29.92 in - SSE 6.9 mph - -  
12:00 AM 66.2 °F 64.4 °F 94% 29.92 in 6.2 mi SSE 6.9 mph - N/A Rain Light Rain
12:30 AM 68.0 °F 64.4 °F 88% 29.92 in 6.2 mi South 6.9 mph - N/A Rain Light Rain
1:00 AM 67 °F 64 °F 89% 29.96 in - SW 3.5 mph - -  
1:00 AM 68.0 °F 64.4 °F 88% 29.95 in 5.0 mi SW 3.5 mph - N/A Rain Light Rain
1:18 AM 66.2 °F 64.4 °F 94% 29.95 in 3.7 mi South 5.8 mph - N/A Rain Rain
1:30 AM 66.2 °F 64.4 °F 94% 29.92 in 3.7 mi East 4.6 mph - N/A Rain Rain
2:00 AM 66.2 °F 64.4 °F 94% 29.89 in 5.0 mi SE 11.5 mph - N/A Rain Light Rain
2:30 AM 66.2 °F 62.6 °F 88% 29.89 in 5.0 mi SSW 8.1 mph - N/A Rain Light Rain
3:00 AM 67 °F 63 °F 83% 29.91 in - SSW 4.6 mph - -   Overcast
3:00 AM 68.0 °F 62.6 °F 83% 29.89 in 6.2 mi South 4.6 mph - N/A Rain Light Rain
3:30 AM 66.2 °F 64.4 °F 94% 29.92 in 3.7 mi WSW 1.2 mph - N/A Rain Light Rain
4:00 AM 66 °F 64 °F 90% 29.91 in - SSE 8.1 mph - -  
4:00 AM 66.2 °F 64.4 °F 94% 29.89 in 6.2 mi SSE 8.1 mph - N/A Rain Light Rain
4:30 AM 66.2 °F 64.4 °F 94% 29.86 in 6.2 mi SE 10.4 mph - N/A Rain Light Rain
5:00 AM 66.2 °F 64.4 °F 94% 29.89 in 6.2 mi WSW 5.8 mph - N/A Rain Light Rain
5:30 AM 68.0 °F 62.6 °F 83% 29.89 in 6.2 mi SSE 6.9 mph - N/A Rain Light Rain
5:55 AM 66.2 °F 64.4 °F 94% 29.83 in 6.2 mi SE 19.6 mph - N/A Rain Light Rain
6:00 AM 66 °F 64 °F 92% 29.83 in 9 mi SE 19.6 mph - - Rain Light Rain
6:00 AM 66.2 °F 64.4 °F 94% 29.83 in 6.2 mi SE 19.6 mph - N/A Rain Light Rain
6:28 AM 66.2 °F 62.6 °F 88% 29.89 in 6.2 mi West 4.6 mph - N/A   Overcast
6:30 AM 68.0 °F 62.6 °F 83% 29.89 in 6.2 mi West 4.6 mph - N/A   Overcast
7:00 AM 67 °F 63 °F 84% 29.87 in - SE 12.7 mph - -  
7:00 AM 66.2 °F 62.6 °F 88% 29.86 in 6.2 mi SE 12.7 mph - N/A   Overcast
7:30 AM 66.2 °F 62.6 °F 88% 29.92 in 6.2 mi WSW 12.7 mph - N/A   Mostly Cloudy
7:51 AM 68.0 °F 62.6 °F 83% 29.92 in 6.2 mi SW 8.1 mph - N/A Rain Light Rain Showers
8:00 AM 68.0 °F 64.4 °F 88% 29.92 in 6.2 mi South 8.1 mph - N/A Rain Rain Showers
8:30 AM 66.2 °F 64.4 °F 94% 29.92 in 6.2 mi South 8.1 mph - N/A   Mostly Cloudy
9:00 AM 67 °F 64 °F 88% 29.92 in 4 mi SE 8.1 mph - -   Overcast
9:00 AM 66.2 °F 64.4 °F 94% 29.92 in 6.2 mi SE 8.1 mph - N/A   Mostly Cloudy
9:30 AM 66.2 °F 64.4 °F 94% 29.92 in 6.2 mi South 9.2 mph - N/A Rain Light Rain Showers
10:00 AM 67 °F 64 °F 88% 29.95 in - South 10.4 mph - -  
10:00 AM 66.2 °F 64.4 °F 94% 29.92 in 6.2 mi South 10.4 mph - N/A   Mostly Cloudy
10:30 AM 66.2 °F 64.4 °F 94% 29.89 in 6.2 mi SSW 8.1 mph - N/A   Mostly Cloudy
11:00 AM 68.0 °F 64.4 °F 88% 29.92 in 3.1 mi South 8.1 mph - N/A Rain Light Rain Showers
11:30 AM 66.2 °F 66.2 °F 100% 29.89 in 3.1 mi SSE 8.1 mph - N/A Rain Light Rain Showers
11:53 AM 68.0 °F 64.4 °F 88% 29.89 in 6.2 mi South 8.1 mph - N/A   Mostly Cloudy
12:00 PM 67 °F 65 °F 90% 29.89 in 12 mi South 5.8 mph - - Rain Light Rain Showers
12:00 PM 68.0 °F 64.4 °F 88% 29.89 in 6.2 mi South 5.8 mph - N/A   Mostly Cloudy
12:30 PM 68.0 °F 64.4 °F 88% 29.89 in 3.7 mi SE 9.2 mph - N/A Rain Light Rain Showers
12:46 PM 66.2 °F 64.4 °F 94% 29.86 in 2.5 mi SE 9.2 mph - N/A Rain Light Rain Showers
1:00 PM 67 °F 65 °F 92% 29.88 in - SE 9.2 mph - -  
1:00 PM 66.2 °F 64.4 °F 94% 29.86 in 2.5 mi SE 9.2 mph - N/A   Mostly Cloudy
1:26 PM 68.0 °F 64.4 °F 88% 29.83 in 6.2 mi SE 5.8 mph - N/A Rain Light Rain Showers
1:30 PM 66.2 °F 62.6 °F 88% 29.83 in 6.2 mi SSE 4.6 mph - N/A Rain Light Rain Showers
2:00 PM 69.8 °F 64.4 °F 83% 29.83 in 6.2 mi South 6.9 mph - N/A   Mostly Cloudy
2:30 PM 68.0 °F 66.2 °F 94% 29.83 in 6.2 mi SE 10.4 mph - N/A   Mostly Cloudy
3:00 PM 68 °F 65 °F 88% 29.83 in 16 mi SSE 9.2 mph - -   Partly Cloudy
3:00 PM 68.0 °F 66.2 °F 94% 29.83 in 6.2 mi SSE 9.2 mph - N/A   Mostly Cloudy
3:30 PM 69.8 °F 66.2 °F 88% 29.83 in 6.2 mi SSE 8.1 mph - N/A   Mostly Cloudy
4:00 PM 69 °F 63 °F 77% 29.84 in - SSE 9.2 mph - -  
4:00 PM 68.0 °F 62.6 °F 83% 29.83 in 6.2 mi SSE 9.2 mph - N/A   Mostly Cloudy
4:30 PM 69.8 °F 64.4 °F 83% 29.83 in 6.2 mi SSE 9.2 mph - N/A   Mostly Cloudy
5:00 PM 69.8 °F 64.4 °F 83% 29.83 in 6.2 mi SSE 10.4 mph - N/A   Mostly Cloudy
5:30 PM 68.0 °F 64.4 °F 88% 29.86 in 6.2 mi SE 10.4 mph - N/A   Mostly Cloudy
6:00 PM 67 °F 65 °F 92% 29.87 in - SE 11.5 mph - -   Overcast
6:00 PM 68.0 °F 66.2 °F 94% 29.86 in 6.2 mi SE 11.5 mph - N/A Rain Light Rain Showers
6:30 PM 66.2 °F 64.4 °F 94% 29.86 in 6.2 mi SE 12.7 mph - N/A Rain Light Rain Showers
7:00 PM 67 °F 63 °F 83% 29.91 in - South 8.1 mph - -  
7:00 PM 66.2 °F 62.6 °F 88% 29.89 in 5.6 mi South 8.1 mph - N/A Rain Light Rain Showers
7:30 PM 64.4 °F 64.4 °F 100% 29.92 in 3.7 mi South 11.5 mph - N/A Rain Rain Showers
8:00 PM 64.4 °F 62.6 °F 94% 29.92 in 5.0 mi SSE 10.4 mph - N/A Rain Light Rain Showers
8:30 PM 64.4 °F 62.6 °F 94% 29.92 in 6.2 mi SSE 9.2 mph - N/A   Mostly Cloudy
9:00 PM 64 °F 62 °F 89% 29.92 in - SE 9.2 mph - -  
9:00 PM 64.4 °F 60.8 °F 88% 29.92 in 6.2 mi SE 9.2 mph - N/A   Scattered Clouds
9:30 PM 64.4 °F 62.6 °F 94% 29.92 in 6.2 mi West 4.6 mph - N/A   Scattered Clouds
10:00 PM 64 °F 61 °F 87% 29.93 in - North 4.6 mph - -  
10:00 PM 64.4 °F 60.8 °F 88% 29.92 in 6.2 mi North 4.6 mph - N/A   Scattered Clouds
10:30 PM 64.4 °F 60.8 °F 88% 29.92 in 6.2 mi SE 8.1 mph - N/A   Scattered Clouds
11:00 PM 64.4 °F 60.8 °F 88% 29.89 in 6.2 mi West 6.9 mph - N/A   Partly Cloudy
11:30 PM 62.6 °F 60.8 °F 94% 29.89 in 6.2 mi WNW 5.8 mph - N/A   Partly Cloudy